| time (UTC) | temp F | wind direction | speed knots | gust knots | rain 1hr in | rain 24hr in | rain mn in | humidity % | barometer mb |
| 20260507225015 | 52 | 13 | 0.0 | 0.0 | 0.00 | 0.17 | 0.17 | 22 | 1011.0 |
| 20260507224445 | 52 | 13 | 0.0 | 0.0 | 0.00 | 0.17 | 0.17 | 23 | 1010.9 |
| 20260507223945 | 52 | 13 | 0.0 | 0.0 | 0.00 | 0.17 | 0.17 | 23 | 1011.0 |
| 20260507223445 | 53 | 13 | 0.0 | 0.0 | 0.00 | 0.17 | 0.17 | 23 | 1011.0 |
| 20260507223015 | 53 | 13 | 0.0 | 0.0 | 0.00 | 0.17 | 0.17 | 22 | 1010.9 |
| 20260507222515 | 53 | 13 | 0.0 | 0.0 | 0.00 | 0.17 | 0.17 | 21 | 1011.0 |
| 20260507222015 | 53 | 12 | 0.0 | 0.0 | 0.00 | 0.17 | 0.17 | 23 | 1011.0 |
| 20260507221515 | 53 | 12 | 0.0 | 0.0 | 0.00 | 0.17 | 0.17 | 25 | 1011.0 |
| 20260507220945 | 53 | 12 | 0.0 | 0.0 | 0.00 | 0.17 | 0.17 | 23 | 1010.9 |
| 20260507220515 | 53 | 12 | 0.0 | 0.0 | 0.00 | 0.17 | 0.17 | 20 | 1010.8 |
| 20260507220015 | 53 | 12 | 0.0 | 0.0 | 0.00 | 0.17 | 0.17 | 21 | 1010.8 |
| 20260507215445 | 53 | 12 | 0.0 | 0.0 | 0.00 | 0.17 | 0.17 | 24 | 1010.8 |
| 20260507215015 | 53 | 12 | 0.0 | 0.0 | 0.00 | 0.17 | 0.17 | 24 | 1010.7 |
| 20260507214514 | 53 | 12 | 0.0 | 0.0 | 0.00 | 0.17 | 0.17 | 22 | 1010.7 |
| 20260507214015 | 53 | 12 | 0.0 | 0.0 | 0.00 | 0.17 | 0.17 | 21 | 1010.9 |
| 20260507213515 | 53 | 12 | 0.0 | 0.0 | 0.00 | 0.17 | 0.17 | 22 | 1011.0 |
| 20260507213014 | 53 | 12 | 0.0 | 0.0 | 0.00 | 0.17 | 0.17 | 25 | 1011.0 |
| 20260507212515 | 53 | 12 | 0.0 | 0.0 | 0.00 | 0.17 | 0.17 | 27 | 1011.0 |
| 20260507211945 | 53 | 12 | 0.0 | 0.0 | 0.00 | 0.17 | 0.17 | 29 | 1011.0 |
| 20260507211515 | 53 | 12 | 0.0 | 0.0 | 0.00 | 0.17 | 0.17 | 31 | 1010.7 |
| 20260507210944 | 53 | 11 | 0.0 | 0.0 | 0.00 | 0.17 | 0.17 | 28 | 1010.7 |
| 20260507210514 | 53 | 5 | 0.0 | 0.0 | 0.00 | 0.17 | 0.17 | 26 | 1010.7 |
| 20260507210014 | 53 | 5 | 0.0 | 0.0 | 0.00 | 0.17 | 0.17 | 26 | 1010.9 |
| 20260507205515 | 53 | 5 | 0.0 | 0.0 | 0.00 | 0.17 | 0.17 | 22 | 1010.9 |
| 20260507205015 | 53 | 5 | 0.0 | 0.0 | 0.00 | 0.17 | 0.17 | 19 | 1010.8 |
| 20260507204514 | 53 | 5 | 0.0 | 0.0 | 0.00 | 0.17 | 0.17 | 18 | 1011.0 |
| 20260507204014 | 53 | 5 | 0.0 | 0.0 | 0.00 | 0.17 | 0.17 | 17 | 1010.9 |
| 20260507203514 | 53 | 5 | 0.0 | 0.0 | 0.00 | 0.17 | 0.17 | 19 | 1010.8 |
| 20260507203014 | 53 | 5 | 0.0 | 0.0 | 0.00 | 0.17 | 0.17 | 16 | 1010.8 |
| 20260507202514 | 53 | 360 | 0.0 | 0.0 | 0.00 | 0.17 | 0.17 | 17 | 1010.9 |
| 20260507202014 | 53 | 360 | 0.0 | 0.0 | 0.00 | 0.17 | 0.17 | 17 | 1011.1 |
| 20260507201514 | 53 | 360 | 0.0 | 0.0 | 0.00 | 0.17 | 0.17 | 16 | 1011.3 |
| 20260507201014 | 53 | 360 | 0.0 | 0.0 | 0.00 | 0.17 | 0.17 | 19 | 1011.4 |
| 20260507200514 | 53 | 360 | 0.0 | 0.0 | 0.00 | 0.17 | 0.17 | 20 | 1011.5 |
| 20260507200014 | 53 | 5 | 0.0 | 0.0 | 0.00 | 0.17 | 0.17 | 19 | 1011.2 |
| 20260507195444 | 54 | 9 | 0.0 | 0.0 | 0.00 | 0.17 | 0.17 | 15 | 1011.1 |
| 20260507195014 | 54 | 360 | 0.0 | 0.0 | 0.00 | 0.17 | 0.17 | 15 | 1011.1 |
| 20260507194514 | 53 | 360 | 0.0 | 0.0 | 0.00 | 0.17 | 0.17 | 16 | 1011.0 |
| 20260507193944 | 54 | 360 | 0.0 | 0.0 | 0.00 | 0.17 | 0.17 | 15 | 1011.2 |
| 20260507193514 | 54 | 195 | 0.0 | 0.0 | 0.00 | 0.17 | 0.17 | 16 | 1011.3 |
| 20260507193014 | 54 | 195 | 0.0 | 1.7 | 0.00 | 0.17 | 0.17 | 13 | 1011.3 |
| 20260507192514 | 54 | 16 | 0.0 | 5.2 | 0.00 | 0.17 | 0.17 | 15 | 1011.2 |
| 20260507192014 | 54 | 15 | 0.0 | 5.2 | 0.00 | 0.17 | 0.17 | 14 | 1011.1 |
| 20260507191514 | 54 | 9 | 0.0 | 1.7 | 0.00 | 0.17 | 0.17 | 13 | 1011.0 |
| 20260507190944 | 54 | 196 | 0.0 | 13.9 | 0.01 | 0.17 | 0.17 | 13 | 1011.0 |
| 20260507190514 | 54 | 182 | 0.0 | 13.9 | 0.01 | 0.17 | 0.17 | 13 | 1011.3 |
| 20260507190014 | 54 | 21 | 0.0 | 12.2 | 0.02 | 0.17 | 0.17 | 9 | 1011.0 |
| 20260507185514 | 54 | 12 | 0.0 | 12.2 | 0.02 | 0.17 | 0.17 | 7 | 1010.9 |
| 20260507185013 | 54 | 15 | 0.0 | 15.6 | 0.02 | 0.17 | 0.17 | 8 | 1010.9 |
| 20260507184514 | 54 | 24 | 0.0 | 15.6 | 0.02 | 0.17 | 0.17 | 6 | 1011.1 |
| 20260507184014 | 54 | 24 | 0.0 | 20.9 | 0.02 | 0.17 | 0.17 | 3 | 1011.2 |
| 20260507183514 | 53 | 19 | 3.5 | 20.9 | 0.02 | 0.17 | 0.17 | 4 | 1011.2 |
| 20260507183014 | 53 | 30 | 2.6 | 19.1 | 0.02 | 0.17 | 0.17 | 4 | 1011.3 |
| 20260507182443 | 53 | 19 | 0.0 | 15.6 | 0.02 | 0.17 | 0.17 | 3 | 1011.3 |
| 20260507181944 | 53 | 27 | 2.6 | 15.6 | 0.02 | 0.17 | 0.17 | 3 | 1011.3 |
| 20260507181514 | 53 | 11 | 4.3 | 22.6 | 0.03 | 0.17 | 0.17 | 5 | 1011.5 |
| 20260507181013 | 53 | 20 | 7.0 | 22.6 | 0.02 | 0.16 | 0.16 | 5 | 1011.2 |
| 20260507180513 | 53 | 34 | 5.2 | 20.9 | 0.02 | 0.16 | 0.16 | 3 | 1011.2 |
| 20260507180013 | 53 | 27 | 7.0 | 20.9 | 0.01 | 0.15 | 0.15 | 3 | 1011.4 |
| 20260507175513 | 53 | 23 | 0.0 | 13.9 | 0.02 | 0.15 | 0.15 | 4 | 1011.5 |
| 20260507175013 | 53 | 19 | 0.0 | 19.1 | 0.02 | 0.15 | 0.15 | 5 | 1011.4 |
| 20260507174513 | 53 | 30 | 2.6 | 19.1 | 0.02 | 0.15 | 0.15 | 6 | 1011.6 |
| 20260507174013 | 53 | 18 | 0.0 | 15.6 | 0.02 | 0.15 | 0.15 | 4 | 1011.5 |
| 20260507173514 | 53 | 24 | 0.0 | 15.6 | 0.02 | 0.15 | 0.15 | 5 | 1011.4 |
| 20260507173014 | 53 | 14 | 6.1 | 13.9 | 0.02 | 0.15 | 0.15 | 5 | 1011.3 |
| 20260507172514 | 53 | 360 | 0.9 | 15.6 | 0.02 | 0.15 | 0.15 | 4 | 1011.4 |
| 20260507171943 | 53 | 21 | 0.0 | 15.6 | 0.02 | 0.15 | 0.15 | 6 | 1011.4 |
| 20260507171513 | 53 | 25 | 0.0 | 13.9 | 0.01 | 0.14 | 0.14 | 7 | 1011.5 |
| 20260507171013 | 53 | 17 | 0.0 | 22.6 | 0.02 | 0.14 | 0.14 | 9 | 1011.7 |
| 20260507170513 | 54 | 30 | 4.3 | 22.6 | 0.03 | 0.14 | 0.14 | 7 | 1011.5 |
| 20260507170014 | 54 | 34 | 0.0 | 8.7 | 0.03 | 0.14 | 0.14 | 4 | 1011.7 |
| 20260507165514 | 54 | 34 | 0.0 | 10.4 | 0.02 | 0.13 | 0.13 | 5 | 1011.4 |
| 20260507165013 | 54 | 17 | 0.0 | 10.4 | 0.02 | 0.13 | 0.13 | 7 | 1011.4 |
| 20260507164513 | 54 | 26 | 0.0 | 10.4 | 0.02 | 0.13 | 0.13 | 7 | 1011.5 |
| 20260507164013 | 54 | 23 | 0.0 | 13.9 | 0.02 | 0.13 | 0.13 | 7 | 1011.5 |
| 20260507163514 | 54 | 27 | 0.0 | 13.9 | 0.02 | 0.13 | 0.13 | 8 | 1011.4 |
| 20260507163013 | 55 | 17 | 4.3 | 13.9 | 0.02 | 0.13 | 0.13 | 8 | 1011.5 |
| 20260507162513 | 55 | 20 | 3.5 | 19.1 | 0.02 | 0.13 | 0.13 | 8 | 1011.8 |
| 20260507162013 | 55 | 24 | 3.5 | 19.1 | 0.02 | 0.13 | 0.13 | 7 | 1011.7 |
| 20260507161513 | 55 | 27 | 0.0 | 0.0 | 0.02 | 0.13 | 0.13 | 7 | 1011.9 |
| 20260507161013 | 55 | 21 | 0.0 | 0.0 | 0.01 | 0.13 | 0.12 | 8 | 1012.0 |
| 20260507160513 | 55 | 16 | 0.0 | 0.0 | 0.00 | 0.12 | 0.11 | 9 | 1012.1 |
| 20260507160013 | 55 | 15 | 0.0 | 5.2 | 0.00 | 0.12 | 0.11 | 10 | 1012.2 |
| 20260507155513 | 55 | 12 | 0.0 | 10.4 | 0.00 | 0.14 | 0.11 | 10 | 1011.9 |
| 20260507154943 | 55 | 11 | 0.0 | 13.9 | 0.00 | 0.14 | 0.11 | 8 | 1011.6 |
| 20260507154513 | 55 | 24 | 1.7 | 13.9 | 0.00 | 0.14 | 0.11 | 8 | 1011.6 |
| 20260507154013 | 55 | 22 | 0.0 | 13.9 | 0.00 | 0.14 | 0.11 | 7 | 1011.5 |
| 20260507153513 | 55 | 22 | 0.0 | 10.4 | 0.00 | 0.14 | 0.11 | 6 | 1011.7 |
| 20260507153013 | 55 | 17 | 0.0 | 12.2 | 0.00 | 0.14 | 0.11 | 6 | 1011.9 |
| 20260507152513 | 55 | 23 | 0.0 | 12.2 | 0.00 | 0.15 | 0.11 | 6 | 1011.6 |
| 20260507152013 | 55 | 15 | 0.0 | 0.0 | 0.00 | 0.15 | 0.11 | 5 | 1011.8 |
| 20260507151513 | 55 | 12 | 0.0 | 0.0 | 0.00 | 0.15 | 0.11 | 5 | 1011.7 |
| 20260507151013 | 55 | 13 | 0.0 | 5.2 | 0.00 | 0.15 | 0.11 | 5 | 1011.6 |
| 20260507150513 | 55 | 13 | 0.0 | 10.4 | 0.00 | 0.15 | 0.11 | 6 | 1011.6 |
| 20260507150013 | 55 | 19 | 0.0 | 10.4 | 0.00 | 0.15 | 0.11 | 6 | 1011.5 |
| 20260507145513 | 55 | 19 | 0.0 | 8.7 | 0.00 | 0.15 | 0.11 | 5 | 1011.6 |
| 20260507144943 | 55 | 20 | 0.0 | 12.2 | 0.00 | 0.15 | 0.11 | 5 | 1011.6 |
| 20260507144513 | 55 | 21 | 0.0 | 12.2 | 0.00 | 0.15 | 0.11 | 5 | 1011.5 |
| 20260507144013 | 55 | 11 | 0.0 | 1.7 | 0.00 | 0.15 | 0.11 | 4 | 1011.8 |
| 20260507143513 | 55 | 21 | 0.0 | 13.9 | 0.00 | 0.15 | 0.11 | 4 | 1011.6 |
| 20260507143012 | 55 | 5 | 0.9 | 13.9 | 0.00 | 0.15 | 0.11 | 3 | 1011.5 |
| 20260507142512 | 55 | 28 | 0.0 | 0.0 | 0.00 | 0.15 | 0.11 | 2 | 1011.6 |
| 20260507142013 | 55 | 28 | 0.0 | 3.5 | 0.00 | 0.15 | 0.11 | 2 | 1011.2 |
| 20260507141513 | 55 | 11 | 0.0 | 13.9 | 0.00 | 0.15 | 0.11 | 2 | 1011.3 |
| 20260507141012 | 55 | 17 | 0.0 | 13.9 | 0.00 | 0.15 | 0.11 | 4 | 1010.8 |
| 20260507140513 | 55 | 17 | 4.3 | 13.9 | 0.00 | 0.15 | 0.11 | 4 | 1011.2 |
| 20260507140013 | 55 | 12 | 0.0 | 10.4 | 0.00 | 0.15 | 0.11 | 4 | 1011.5 |
| 20260507135513 | 55 | 24 | 5.2 | 10.4 | 0.00 | 0.15 | 0.11 | 4 | 1011.8 |
| 20260507135012 | 55 | 26 | 0.0 | 10.4 | 0.00 | 0.15 | 0.11 | 4 | 1012.0 |
| 20260507134513 | 55 | 28 | 0.0 | 10.4 | 0.00 | 0.15 | 0.11 | 4 | 1012.1 |
| 20260507134012 | 55 | 25 | 0.0 | 3.5 | 0.00 | 0.15 | 0.11 | 2 | 1012.0 |
| 20260507133513 | 55 | 21 | 0.0 | 0.0 | 0.00 | 0.15 | 0.11 | 2 | 1012.0 |
| 20260507133013 | 55 | 22 | 0.0 | 0.0 | 0.00 | 0.15 | 0.11 | 1 | 1011.7 |
| 20260507132512 | 55 | 22 | 0.0 | 0.0 | 0.00 | 0.15 | 0.11 | 1 | 1011.7 |
| 20260507131942 | 55 | 21 | 0.0 | 0.0 | 0.00 | 0.15 | 0.11 | 1 | 1011.7 |
| 20260507131512 | 55 | 21 | 0.0 | 13.9 | 0.00 | 0.15 | 0.11 | 1 | 1011.5 |
| 20260507130942 | 55 | 17 | 0.0 | 13.9 | 0.00 | 0.15 | 0.11 | 1 | 1011.5 |
| 20260507130512 | 55 | 26 | 5.2 | 10.4 | 0.00 | 0.15 | 0.11 | 1 | 1011.3 |
| 20260507130012 | 55 | 17 | 3.5 | 7.0 | 0.00 | 0.15 | 0.11 | 1 | 1011.3 |
| 20260507125512 | 55 | 28 | 0.0 | 0.0 | 0.00 | 0.15 | 0.11 | 100 | 1011.4 |
| 20260507125012 | 55 | 28 | 0.0 | 0.0 | 0.00 | 0.15 | 0.11 | 1 | 1011.5 |
| 20260507124512 | 55 | 28 | 0.0 | 8.7 | 0.01 | 0.15 | 0.11 | 1 | 1011.7 |
| 20260507124012 | 55 | 24 | 0.0 | 8.7 | 0.01 | 0.15 | 0.11 | 1 | 1011.6 |
| 20260507123512 | 55 | 27 | 0.0 | 12.2 | 0.01 | 0.15 | 0.11 | 2 | 1011.6 |
| 20260507123012 | 55 | 17 | 0.0 | 12.2 | 0.01 | 0.15 | 0.11 | 2 | 1011.6 |
| 20260507122442 | 55 | 29 | 0.0 | 12.2 | 0.01 | 0.15 | 0.11 | 2 | 1011.5 |
| 20260507122011 | 56 | 15 | 6.1 | 17.4 | 0.01 | 0.15 | 0.11 | 1 | 1011.4 |
| 20260507121512 | 56 | 13 | 0.0 | 17.4 | 0.01 | 0.15 | 0.11 | 2 | 1011.2 |
| 20260507121012 | 57 | 17 | 3.5 | 15.6 | 0.01 | 0.15 | 0.11 | 1 | 1011.3 |
| 20260507120512 | 57 | 19 | 0.0 | 15.6 | 0.01 | 0.15 | 0.11 | 100 | 1011.4 |
| 20260507120012 | 58 | 22 | 0.0 | 15.6 | 0.01 | 0.15 | 0.11 | 100 | 1011.1 |
| 20260507115512 | 59 | 26 | 0.9 | 15.6 | 0.01 | 0.15 | 0.11 | 100 | 1010.9 |
| 20260507114942 | 60 | 5 | 0.0 | 15.6 | 0.01 | 0.15 | 0.11 | 100 | 1011.2 |
| 20260507114442 | 63 | 22 | 2.6 | 19.1 | 0.01 | 0.14 | 0.10 | 100 | 1011.1 |
| 20260507114012 | 64 | 32 | 5.2 | 19.1 | 0.01 | 0.14 | 0.10 | 100 | 1011.1 |
| 20260507113512 | 64 | 118 | 0.0 | 0.0 | 0.01 | 0.14 | 0.10 | 100 | 1010.9 |
| 20260507113012 | 64 | 118 | 0.0 | 0.0 | 0.01 | 0.14 | 0.10 | 100 | 1010.9 |
| 20260507112441 | 64 | 118 | 0.0 | 0.0 | 0.01 | 0.14 | 0.10 | 100 | 1010.8 |
| 20260507112011 | 64 | 118 | 0.0 | 0.0 | 0.01 | 0.14 | 0.10 | 100 | 1010.4 |
| 20260507111512 | 64 | 117 | 0.0 | 0.0 | 0.01 | 0.14 | 0.10 | 100 | 1010.6 |
| 20260507110942 | 64 | 117 | 0.0 | 0.0 | 0.02 | 0.14 | 0.10 | 100 | 1010.4 |
| 20260507110512 | 64 | 117 | 0.0 | 0.0 | 0.02 | 0.14 | 0.10 | 100 | 1010.4 |
| 20260507110012 | 64 | 117 | 0.0 | 0.0 | 0.02 | 0.14 | 0.10 | 100 | 1010.5 |
| 20260507105512 | 64 | 118 | 0.0 | 0.0 | 0.02 | 0.14 | 0.10 | 100 | 1010.4 |
| 20260507105012 | 64 | 118 | 0.0 | 0.0 | 0.02 | 0.14 | 0.10 | 100 | 1010.4 |
| 20260507104512 | 64 | 118 | 0.0 | 0.0 | 0.01 | 0.13 | 0.09 | 100 | 1010.3 |
| 20260507104012 | 64 | 117 | 0.0 | 0.0 | 0.02 | 0.13 | 0.09 | 100 | 1010.3 |
| 20260507103512 | 64 | 117 | 0.0 | 0.0 | 0.02 | 0.13 | 0.09 | 100 | 1010.4 |
| 20260507103012 | 64 | 118 | 0.0 | 0.0 | 0.02 | 0.13 | 0.09 | 100 | 1010.6 |
| 20260507102511 | 64 | 117 | 0.0 | 0.0 | 0.02 | 0.13 | 0.09 | 100 | 1010.5 |
| 20260507102012 | 64 | 118 | 0.0 | 0.0 | 0.02 | 0.13 | 0.09 | 100 | 1010.1 |
| 20260507101512 | 64 | 118 | 0.0 | 0.0 | 0.03 | 0.13 | 0.09 | 100 | 1010.2 |
| 20260507101011 | 64 | 117 | 0.0 | 0.0 | 0.02 | 0.12 | 0.08 | 100 | 1010.2 |
| 20260507100511 | 64 | 118 | 0.0 | 0.0 | 0.02 | 0.12 | 0.08 | 100 | 1010.3 |
| 20260507100011 | 64 | 117 | 0.0 | 0.0 | 0.02 | 0.12 | 0.08 | 100 | 1010.4 |
| 20260507095511 | 64 | 117 | 0.0 | 0.0 | 0.02 | 0.12 | 0.08 | 100 | 1010.7 |
| 20260507095011 | 64 | 118 | 0.0 | 0.0 | 0.02 | 0.12 | 0.08 | 100 | 1010.8 |
| 20260507094511 | 64 | 117 | 0.0 | 0.0 | 0.02 | 0.12 | 0.08 | 100 | 1010.7 |
| 20260507094012 | 64 | 117 | 0.0 | 0.0 | 0.01 | 0.11 | 0.07 | 100 | 1010.5 |
| 20260507093512 | 65 | 117 | 0.0 | 0.0 | 0.01 | 0.11 | 0.07 | 100 | 1010.5 |
| 20260507093011 | 65 | 117 | 0.0 | 0.0 | 0.01 | 0.11 | 0.07 | 100 | 1010.5 |
| 20260507092511 | 65 | 117 | 0.0 | 0.0 | 0.01 | 0.11 | 0.07 | 100 | 1010.5 |
| 20260507092011 | 65 | 117 | 0.0 | 0.0 | 0.01 | 0.11 | 0.07 | 100 | 1010.5 |
| 20260507091511 | 65 | 117 | 0.0 | 0.0 | 0.00 | 0.10 | 0.06 | 100 | 1010.7 |
| 20260507091011 | 65 | 117 | 0.0 | 0.0 | 0.00 | 0.10 | 0.06 | 100 | 1010.7 |
| 20260507090511 | 65 | 117 | 0.0 | 0.0 | 0.00 | 0.10 | 0.06 | 100 | 1010.6 |
| 20260507090011 | 65 | 117 | 0.0 | 0.0 | 0.00 | 0.10 | 0.06 | 100 | 1010.4 |
| 20260507085511 | 65 | 117 | 0.0 | 0.0 | 0.00 | 0.10 | 0.06 | 100 | 1010.6 |
| 20260507085011 | 65 | 117 | 0.0 | 0.0 | 0.00 | 0.10 | 0.06 | 100 | 1010.6 |
| 20260507084511 | 65 | 117 | 0.0 | 0.0 | 0.00 | 0.10 | 0.06 | 100 | 1010.6 |
| 20260507084011 | 65 | 117 | 0.0 | 0.0 | 0.00 | 0.10 | 0.06 | 100 | 1010.4 |
| 20260507083511 | 65 | 117 | 0.0 | 0.0 | 0.00 | 0.10 | 0.06 | 100 | 1010.2 |
| 20260507083011 | 65 | 117 | 0.0 | 0.0 | 0.00 | 0.10 | 0.06 | 100 | 1010.1 |
| 20260507082511 | 65 | 117 | 0.0 | 0.0 | 0.00 | 0.10 | 0.06 | 100 | 1010.0 |
| 20260507082011 | 65 | 117 | 0.0 | 0.0 | 0.00 | 0.10 | 0.06 | 100 | 1010.0 |
| 20260507081511 | 65 | 117 | 0.0 | 0.0 | 0.00 | 0.10 | 0.06 | 100 | 1010.0 |
| 20260507081011 | 65 | 117 | 0.0 | 0.0 | 0.00 | 0.10 | 0.06 | 100 | 1010.1 |
| 20260507080511 | 65 | 117 | 0.0 | 0.0 | 0.00 | 0.10 | 0.06 | 100 | 1010.0 |
| 20260507080011 | 65 | 117 | 0.0 | 0.0 | 0.00 | 0.10 | 0.06 | 100 | 1009.9 |
| 20260507075511 | 65 | 117 | 0.0 | 0.0 | 0.00 | 0.10 | 0.06 | 100 | 1009.7 |
| 20260507075011 | 65 | 117 | 0.0 | 0.0 | 0.00 | 0.10 | 0.06 | 100 | 1009.9 |
| 20260507074511 | 65 | 117 | 0.0 | 0.0 | 0.00 | 0.10 | 0.06 | 100 | 1009.8 |
| 20260507074011 | 65 | 117 | 0.0 | 0.0 | 0.00 | 0.10 | 0.06 | 100 | 1009.8 |
| 20260507073511 | 65 | 117 | 0.0 | 0.0 | 0.00 | 0.10 | 0.06 | 100 | 1010.0 |
| 20260507073012 | 65 | 117 | 0.0 | 0.0 | 0.00 | 0.10 | 0.06 | 100 | 1010.2 |
| 20260507072511 | 65 | 117 | 0.0 | 0.0 | 0.00 | 0.10 | 0.06 | 100 | 1010.1 |
| 20260507072011 | 66 | 117 | 0.0 | 0.0 | 0.00 | 0.10 | 0.06 | 100 | 1009.9 |
| 20260507071511 | 66 | 117 | 0.0 | 0.0 | 0.00 | 0.10 | 0.06 | 100 | 1009.7 |
| 20260507071011 | 66 | 117 | 0.0 | 0.0 | 0.00 | 0.10 | 0.06 | 100 | 1010.0 |
| 20260507070511 | 66 | 117 | 0.0 | 0.0 | 0.00 | 0.10 | 0.06 | 100 | 1010.2 |
| 20260507070013 | 66 | 117 | 0.0 | 0.0 | 0.00 | 0.10 | 0.06 | 100 | 1010.2 |
| 20260507065510 | 66 | 119 | 0.0 | 1.7 | 0.00 | 0.10 | 0.06 | 100 | 1010.4 |
| 20260507065010 | 66 | 119 | 0.0 | 1.7 | 0.00 | 0.10 | 0.06 | 100 | 1010.5 |
| 20260507064510 | 66 | 120 | 0.0 | 0.0 | 0.00 | 0.10 | 0.06 | 100 | 1010.6 |
| 20260507064010 | 66 | 107 | 0.0 | 0.0 | 0.00 | 0.10 | 0.06 | 100 | 1010.8 |
| 20260507063510 | 66 | 92 | 0.0 | 0.0 | 0.00 | 0.10 | 0.06 | 100 | 1010.8 |
| 20260507063010 | 66 | 90 | 0.0 | 0.0 | 0.00 | 0.10 | 0.06 | 100 | 1010.7 |
| 20260507062511 | 66 | 90 | 0.0 | 0.0 | 0.00 | 0.10 | 0.06 | 100 | 1010.6 |
| 20260507062010 | 66 | 90 | 0.0 | 0.0 | 0.00 | 0.10 | 0.06 | 100 | 1010.7 |
| 20260507061510 | 66 | 90 | 0.0 | 0.0 | 0.00 | 0.10 | 0.06 | 100 | 1010.6 |
| 20260507061011 | 66 | 90 | 0.0 | 0.0 | 0.00 | 0.10 | 0.06 | 100 | 1010.4 |
| 20260507060511 | 66 | 90 | 0.0 | 0.0 | 0.01 | 0.10 | 0.06 | 100 | 1010.7 |
| 20260507060010 | 66 | 89 | 0.0 | 0.0 | 0.01 | 0.10 | 0.06 | 100 | 1010.9 |
| 20260507055510 | 66 | 115 | 0.0 | 0.0 | 0.02 | 0.10 | 0.06 | 100 | 1011.1 |
| 20260507055010 | 66 | 115 | 0.0 | 0.0 | 0.03 | 0.10 | 0.06 | 100 | 1011.1 |
| 20260507054510 | 66 | 115 | 0.0 | 0.0 | 0.05 | 0.10 | 0.06 | 100 | 1011.2 |
| 20260507054011 | 66 | 115 | 0.0 | 0.0 | 0.05 | 0.10 | 0.06 | 100 | 1011.0 |
| 20260507053511 | 66 | 115 | 0.0 | 0.0 | 0.05 | 0.10 | 0.06 | 100 | 1011.0 |
| 20260507053010 | 66 | 115 | 0.0 | 0.0 | 0.06 | 0.10 | 0.06 | 100 | 1011.0 |
| 20260507052510 | 66 | 115 | 0.0 | 0.0 | 0.06 | 0.10 | 0.06 | 100 | 1011.1 |
| 20260507052010 | 66 | 115 | 0.0 | 0.0 | 0.06 | 0.10 | 0.06 | 2 | 1011.1 |
| 20260507051511 | 66 | 115 | 0.0 | 0.0 | 0.06 | 0.10 | 0.06 | 3 | 1011.2 |
| 20260507051011 | 66 | 115 | 0.0 | 0.0 | 0.06 | 0.10 | 0.06 | 4 | 1011.0 |
| 20260507050510 | 66 | 115 | 0.0 | 0.0 | 0.05 | 0.09 | 0.05 | 6 | 1011.3 |
| 20260507050010 | 66 | 115 | 0.0 | 0.0 | 0.05 | 0.09 | 0.05 | 8 | 1010.8 |
| 20260507045510 | 66 | 115 | 0.0 | 0.0 | 0.04 | 0.08 | 0.04 | 10 | 1010.7 |
| 20260507045010 | 66 | 115 | 0.0 | 0.0 | 0.03 | 0.07 | 0.03 | 11 | 1011.4 |
| 20260507044510 | 66 | 117 | 0.0 | 0.0 | 0.01 | 0.05 | 0.01 | 15 | 1011.9 |
| 20260507044010 | 66 | 117 | 0.0 | 0.0 | 0.01 | 0.05 | 0.01 | 19 | 1012.1 |
| 20260507043510 | 67 | 117 | 0.0 | 0.0 | 0.01 | 0.05 | 0.01 | 23 | 1012.2 |
| 20260507043010 | 67 | 132 | 0.0 | 1.7 | 0.00 | 0.04 | 0.00 | 28 | 1012.2 |
| 20260507042510 | 67 | 113 | 0.0 | 1.7 | 0.00 | 0.04 | 0.00 | 32 | 1012.3 |
| 20260507042010 | 67 | 119 | 0.0 | 0.0 | 0.00 | 0.04 | 0.00 | 36 | 1012.2 |
| 20260507041510 | 68 | 119 | 0.0 | 1.7 | 0.00 | 0.04 | 0.00 | 40 | 1012.3 |
| 20260507041010 | 68 | 134 | 0.0 | 1.7 | 0.00 | 0.04 | 0.00 | 43 | 1012.3 |
| 20260507040510 | 68 | 113 | 0.0 | 1.7 | 0.00 | 0.04 | 0.00 | 47 | 1012.2 |
| 20260507040010 | 68 | 121 | 0.0 | 1.7 | 0.00 | 0.04 | 0.00 | 49 | 1012.1 |
| 20260507035510 | 68 | 126 | 0.0 | 0.0 | 0.00 | 0.04 | 0.04 | 50 | 1011.8 |
| 20260507035010 | 68 | 117 | 0.0 | 0.0 | 0.00 | 0.04 | 0.04 | 51 | 1011.6 |
| 20260507034510 | 68 | 103 | 0.0 | 0.0 | 0.00 | 0.04 | 0.04 | 51 | 1011.4 |
| 20260507034010 | 68 | 98 | 0.0 | 0.0 | 0.00 | 0.04 | 0.04 | 53 | 1011.3 |
| 20260507033510 | 68 | 109 | 0.0 | 0.0 | 0.00 | 0.04 | 0.04 | 53 | 1011.3 |
| 20260507033010 | 68 | 111 | 0.0 | 0.0 | 0.00 | 0.04 | 0.04 | 54 | 1011.4 |
| 20260507032509 | 68 | 96 | 0.0 | 0.0 | 0.00 | 0.04 | 0.04 | 55 | 1011.6 |
| 20260507032010 | 69 | 96 | 0.0 | 1.7 | 0.00 | 0.04 | 0.04 | 56 | 1011.4 |
| 20260507031510 | 68 | 101 | 0.0 | 1.7 | 0.00 | 0.04 | 0.04 | 55 | 1011.5 |
| 20260507031010 | 68 | 114 | 0.0 | 0.0 | 0.00 | 0.04 | 0.04 | 54 | 1011.4 |
| 20260507030509 | 68 | 105 | 0.0 | 0.0 | 0.00 | 0.04 | 0.04 | 53 | 1011.4 |
| 20260507030010 | 68 | 101 | 0.0 | 0.0 | 0.00 | 0.04 | 0.04 | 52 | 1011.5 |
| 20260507025509 | 68 | 100 | 0.0 | 0.0 | 0.00 | 0.04 | 0.04 | 52 | 1011.6 |
| 20260507025010 | 68 | 103 | 0.0 | 0.0 | 0.00 | 0.04 | 0.04 | 51 | 1011.5 |
| 20260507024509 | 68 | 110 | 0.0 | 0.0 | 0.00 | 0.04 | 0.04 | 51 | 1011.5 |
| 20260507024010 | 68 | 100 | 0.0 | 0.0 | 0.00 | 0.04 | 0.04 | 50 | 1011.5 |
| 20260507023009 | 68 | 99 | 0.0 | 0.0 | 0.00 | 0.04 | 0.04 | 50 | 1011.2 |
| 20260507022510 | 68 | 98 | 0.0 | 0.0 | 0.00 | 0.04 | 0.04 | 50 | 1011.2 |
| 20260507022010 | 68 | 98 | 0.0 | 0.0 | 0.00 | 0.04 | 0.04 | 49 | 1011.2 |
| 20260507021509 | 68 | 98 | 0.0 | 0.0 | 0.00 | 0.04 | 0.04 | 50 | 1011.0 |
| 20260507021009 | 68 | 98 | 0.0 | 0.0 | 0.00 | 0.04 | 0.04 | 50 | 1011.0 |
| 20260507020509 | 68 | 99 | 0.0 | 0.0 | 0.00 | 0.04 | 0.04 | 50 | 1011.2 |
| 20260507020009 | 68 | 79 | 0.0 | 0.0 | 0.00 | 0.04 | 0.04 | 49 | 1011.1 |
| 20260507015509 | 68 | 79 | 0.0 | 0.0 | 0.00 | 0.04 | 0.04 | 48 | 1011.1 |
| 20260507015009 | 68 | 94 | 0.0 | 0.0 | 0.00 | 0.04 | 0.04 | 48 | 1011.4 |
| 20260507014509 | 67 | 91 | 0.0 | 0.0 | 0.00 | 0.04 | 0.04 | 47 | 1011.7 |
| 20260507014009 | 67 | 95 | 0.0 | 0.0 | 0.00 | 0.04 | 0.04 | 47 | 1011.8 |
| 20260507013509 | 67 | 93 | 0.0 | 0.0 | 0.00 | 0.04 | 0.04 | 46 | 1011.7 |
| 20260507013009 | 67 | 93 | 0.0 | 0.0 | 0.00 | 0.04 | 0.04 | 46 | 1011.9 |
| 20260507012510 | 67 | 92 | 0.0 | 0.0 | 0.00 | 0.04 | 0.04 | 45 | 1011.9 |
| 20260507012009 | 67 | 89 | 0.0 | 0.0 | 0.00 | 0.04 | 0.04 | 45 | 1011.8 |
| 20260507011509 | 67 | 89 | 0.0 | 0.0 | 0.00 | 0.04 | 0.04 | 47 | 1011.6 |
| 20260507011009 | 67 | 89 | 0.0 | 0.0 | 0.00 | 0.04 | 0.04 | 48 | 1011.4 |
| 20260507010509 | 68 | 89 | 0.0 | 0.0 | 0.00 | 0.04 | 0.04 | 48 | 1011.2 |
| 20260507010009 | 68 | 89 | 0.0 | 0.0 | 0.00 | 0.04 | 0.04 | 48 | 1011.2 |
| 20260507005508 | 68 | 89 | 0.0 | 0.0 | 0.00 | 0.04 | 0.04 | 49 | 1011.2 |
| 20260507005009 | 68 | 85 | 0.0 | 0.0 | 0.00 | 0.04 | 0.04 | 50 | 1011.1 |
| 20260507004509 | 68 | 85 | 0.0 | 0.0 | 0.00 | 0.04 | 0.04 | 52 | 1011.2 |
| 20260507004009 | 68 | 85 | 0.0 | 0.0 | 0.00 | 0.04 | 0.04 | 54 | 1011.2 |
| 20260507003509 | 68 | 85 | 0.0 | 0.0 | 0.00 | 0.04 | 0.04 | 55 | 1011.0 |
| 20260507003009 | 68 | 84 | 0.0 | 0.0 | 0.00 | 0.04 | 0.04 | 56 | 1011.1 |
| 20260507002509 | 69 | 84 | 0.0 | 0.0 | 0.00 | 0.04 | 0.04 | 58 | 1011.0 |
| 20260507002009 | 69 | 84 | 0.0 | 0.0 | 0.00 | 0.04 | 0.04 | 58 | 1011.2 |
| 20260507001509 | 69 | 84 | 0.0 | 0.0 | 0.00 | 0.04 | 0.04 | 60 | 1011.3 |
| 20260507001008 | 69 | 84 | 0.0 | 0.0 | 0.00 | 0.04 | 0.04 | 60 | 1011.4 |
| 20260507000509 | 69 | 84 | 0.0 | 0.0 | 0.00 | 0.04 | 0.04 | 61 | 1011.4 |
| 20260507000008 | 70 | 99 | 0.0 | 0.0 | 0.00 | 0.04 | 0.04 | 61 | 1011.4 |
| 20260506235508 | 70 | 98 | 0.0 | 0.0 | 0.00 | 0.04 | 0.04 | 62 | 1011.5 |
| 20260506235008 | 70 | 104 | 0.0 | 0.0 | 0.00 | 0.04 | 0.04 | 62 | 1011.6 |
| 20260506234508 | 70 | 103 | 0.0 | 0.0 | 0.00 | 0.04 | 0.04 | 63 | 1011.7 |
| 20260506234009 | 70 | 98 | 0.0 | 0.0 | 0.00 | 0.04 | 0.04 | 63 | 1011.7 |
| 20260506233508 | 70 | 107 | 0.0 | 0.0 | 0.00 | 0.04 | 0.04 | 63 | 1011.6 |
| 20260506233008 | 70 | 101 | 0.0 | 0.0 | 0.00 | 0.04 | 0.04 | 64 | 1011.6 |
| 20260506232509 | 70 | 97 | 0.0 | 0.0 | 0.00 | 0.04 | 0.04 | 64 | 1011.4 |
| 20260506232009 | 70 | 96 | 0.0 | 0.0 | 0.00 | 0.04 | 0.04 | 65 | 1011.3 |
| 20260506231508 | 71 | 103 | 0.0 | 0.0 | 0.00 | 0.04 | 0.04 | 65 | 1011.3 |
| 20260506231008 | 71 | 104 | 0.0 | 0.0 | 0.00 | 0.04 | 0.04 | 65 | 1011.2 |
| 20260506230508 | 71 | 104 | 0.0 | 0.0 | 0.00 | 0.04 | 0.04 | 65 | 1011.2 |
| 20260506230008 | 71 | 109 | 0.0 | 0.0 | 0.00 | 0.04 | 0.04 | 66 | 1011.3 |
| 20260506225508 | 71 | 112 | 0.0 | 0.0 | 0.00 | 0.04 | 0.04 | 66 | 1011.4 |